| time (UTC) | temp F | wind direction | speed knots | gust knots | rain 1hr in | rain 24hr in | rain mn in | humidity % | barometer mb |
| 20260504184001 | 75 | 212 | 13.9 | 27.8 | 0.00 | 0.00 | 0.00 | 51 | 1005.7 |
| 20260504183502 | 75 | 209 | 10.4 | 24.3 | 0.00 | 0.00 | 0.00 | 53 | 1006.0 |
| 20260504183001 | 76 | 217 | 17.4 | 26.1 | 0.00 | 0.00 | 0.00 | 50 | 1005.9 |
| 20260504182502 | 76 | 227 | 15.6 | 29.5 | 0.00 | 0.00 | 0.00 | 51 | 1006.1 |
| 20260504182002 | 76 | 213 | 22.6 | 25.2 | 0.00 | 0.00 | 0.00 | 51 | 1006.2 |
| 20260504181502 | 76 | 218 | 11.3 | 24.3 | 0.00 | 0.00 | 0.00 | 51 | 1006.2 |
| 20260504181002 | 74 | 214 | 13.0 | 24.3 | 0.00 | 0.00 | 0.00 | 55 | 1006.3 |
| 20260504180501 | 74 | 224 | 10.4 | 23.5 | 0.00 | 0.00 | 0.00 | 56 | 1006.2 |
| 20260504180003 | 75 | 237 | 14.8 | 26.9 | 0.00 | 0.00 | 0.00 | 53 | 1006.5 |
| 20260504175502 | 74 | 256 | 12.2 | 20.9 | 0.00 | 0.00 | 0.00 | 54 | 1006.5 |
| 20260504175002 | 74 | 255 | 13.0 | 23.5 | 0.00 | 0.00 | 0.00 | 55 | 1006.4 |
| 20260504174502 | 74 | 236 | 19.1 | 25.2 | 0.00 | 0.00 | 0.00 | 52 | 1006.5 |
| 20260504174002 | 74 | 229 | 22.6 | 29.5 | 0.00 | 0.00 | 0.00 | 52 | 1006.5 |
| 20260504173501 | 75 | 210 | 15.6 | 21.7 | 0.00 | 0.00 | 0.00 | 53 | 1006.5 |
| 20260504173001 | 74 | 210 | 26.1 | 26.9 | 0.00 | 0.00 | 0.00 | 52 | 1006.5 |
| 20260504172502 | 74 | 236 | 13.0 | 18.2 | 0.00 | 0.00 | 0.00 | 54 | 1006.6 |
| 20260504172001 | 74 | 229 | 16.5 | 20.9 | 0.00 | 0.00 | 0.00 | 52 | 1006.7 |
| 20260504171502 | 72 | 212 | 20.9 | 22.6 | 0.00 | 0.00 | 0.00 | 53 | 1006.6 |
| 20260504171002 | 72 | 205 | 9.6 | 20.0 | 0.00 | 0.00 | 0.00 | 56 | 1006.8 |
| 20260504170502 | 72 | 218 | 13.0 | 19.1 | 0.00 | 0.00 | 0.00 | 58 | 1006.7 |
| 20260504151003 | 66 | 228 | 10.4 | 18.2 | 0.00 | 0.00 | 0.00 | 67 | 1008.3 |
| 20260504150501 | 65 | 214 | 13.0 | 14.8 | 0.00 | 0.00 | 0.00 | 66 | 1008.2 |
| 20260504141002 | 62 | 210 | 11.3 | 19.1 | 0.00 | 0.00 | 0.00 | 68 | 1008.5 |
| 20260504140502 | 61 | 212 | 13.0 | 17.4 | 0.00 | 0.00 | 0.00 | 70 | 1008.4 |
| 20260504130501 | 58 | 197 | 4.3 | 19.1 | 0.00 | 0.00 | 0.00 | 73 | 1008.8 |
| 20260504110502 | 48 | 210 | 7.8 | 9.6 | 0.00 | 0.00 | 0.00 | 84 | 1008.9 |
| 20260504100501 | 49 | 194 | 6.1 | 15.6 | 0.00 | 0.00 | 0.00 | 81 | 1008.9 |
| 20260504082002 | 48 | 165 | 5.2 | 12.2 | 0.00 | 0.00 | 0.00 | 83 | 1009.7 |
| 20260504081502 | 48 | 180 | 5.2 | 11.3 | 0.00 | 0.00 | 0.00 | 83 | 1009.8 |
| 20260504081002 | 48 | 201 | 6.1 | 12.2 | 0.00 | 0.00 | 0.00 | 82 | 1009.8 |
| 20260504080502 | 49 | 182 | 4.3 | 13.0 | 0.00 | 0.00 | 0.00 | 82 | 1009.8 |
| 20260504050502 | 49 | 200 | 7.8 | 10.4 | 0.00 | 0.00 | 0.00 | 78 | 1011.6 |
| 20260504050003 | 50 | 195 | 7.0 | 11.3 | 0.00 | 0.00 | 0.00 | 78 | 1011.5 |
| 20260504045502 | 50 | 132 | 4.3 | 10.4 | 0.00 | 0.00 | 0.00 | 79 | 1011.7 |
| 20260504045001 | 49 | 157 | 4.3 | 8.7 | 0.00 | 0.00 | 0.00 | 79 | 1011.8 |
| 20260504044501 | 49 | 176 | 6.1 | 10.4 | 0.00 | 0.00 | 0.00 | 79 | 1011.6 |
| 20260504044002 | 49 | 172 | 4.3 | 11.3 | 0.00 | 0.00 | 0.00 | 80 | 1011.6 |
| 20260504043502 | 49 | 180 | 4.3 | 9.6 | 0.00 | 0.00 | 0.00 | 81 | 1011.7 |
| 20260504043002 | 48 | 166 | 4.3 | 10.4 | 0.00 | 0.00 | 0.00 | 82 | 1011.9 |
| 20260504042501 | 48 | 165 | 3.5 | 10.4 | 0.00 | 0.00 | 0.00 | 81 | 1011.7 |
| 20260504042001 | 48 | 165 | 4.3 | 9.6 | 0.00 | 0.00 | 0.00 | 82 | 1011.9 |
| 20260504041501 | 48 | 146 | 7.0 | 10.4 | 0.00 | 0.00 | 0.00 | 81 | 1012.0 |
| 20260504041002 | 49 | 152 | 3.5 | 8.7 | 0.00 | 0.00 | 0.00 | 81 | 1011.9 |
| 20260504040502 | 49 | 151 | 5.2 | 8.7 | 0.00 | 0.00 | 0.00 | 81 | 1012.0 |
| 20260504040002 | 49 | 168 | 4.3 | 16.5 | 0.00 | 0.00 | 0.00 | 80 | 1012.2 |
| 20260504035501 | 49 | 155 | 11.3 | 11.3 | 0.00 | 0.00 | 0.00 | 80 | 1012.1 |
| 20260504035002 | 49 | 151 | 5.2 | 13.0 | 0.00 | 0.00 | 0.00 | 81 | 1012.2 |
| 20260504034502 | 49 | 159 | 6.1 | 9.6 | 0.00 | 0.00 | 0.00 | 81 | 1012.2 |
| 20260504034002 | 49 | 157 | 8.7 | 10.4 | 0.00 | 0.00 | 0.00 | 81 | 1012.3 |
| 20260504033502 | 49 | 175 | 5.2 | 9.6 | 0.00 | 0.00 | 0.00 | 81 | 1012.3 |
| 20260504033001 | 49 | 153 | 3.5 | 11.3 | 0.00 | 0.00 | 0.00 | 81 | 1012.4 |
| 20260504032502 | 50 | 149 | 7.0 | 11.3 | 0.00 | 0.00 | 0.00 | 80 | 1012.4 |
| 20260504032002 | 50 | 155 | 5.2 | 13.9 | 0.00 | 0.00 | 0.00 | 79 | 1012.2 |
| 20260504031501 | 50 | 158 | 8.7 | 12.2 | 0.00 | 0.00 | 0.00 | 79 | 1012.5 |
| 20260504031002 | 50 | 171 | 5.2 | 13.0 | 0.00 | 0.00 | 0.00 | 79 | 1012.5 |
| 20260504030501 | 50 | 188 | 4.3 | 10.4 | 0.00 | 0.00 | 0.00 | 79 | 1012.5 |
| 20260504030002 | 50 | 170 | 3.5 | 13.0 | 0.00 | 0.00 | 0.00 | 79 | 1012.6 |
| 20260504025502 | 50 | 176 | 6.1 | 13.0 | 0.00 | 0.00 | 0.00 | 79 | 1012.6 |
| 20260504025001 | 50 | 188 | 6.1 | 13.0 | 0.00 | 0.00 | 0.00 | 79 | 1012.7 |
| 20260504024502 | 50 | 148 | 7.0 | 14.8 | 0.00 | 0.00 | 0.00 | 79 | 1012.7 |
| 20260504024001 | 50 | 179 | 2.6 | 14.8 | 0.00 | 0.00 | 0.00 | 79 | 1012.7 |
| 20260504023501 | 50 | 167 | 5.2 | 16.5 | 0.00 | 0.00 | 0.00 | 78 | 1012.7 |
| 20260504023001 | 50 | 156 | 5.2 | 15.6 | 0.00 | 0.00 | 0.00 | 77 | 1012.8 |
| 20260504022502 | 50 | 172 | 16.5 | 16.5 | 0.00 | 0.00 | 0.00 | 77 | 1013.0 |
| 20260504022002 | 50 | 161 | 4.3 | 14.8 | 0.00 | 0.00 | 0.00 | 78 | 1012.9 |
| 20260504021501 | 50 | 207 | 13.0 | 15.6 | 0.00 | 0.00 | 0.00 | 78 | 1012.7 |
| 20260504021002 | 50 | 165 | 8.7 | 11.3 | 0.00 | 0.00 | 0.00 | 80 | 1012.8 |
| 20260504020501 | 50 | 173 | 4.3 | 13.9 | 0.00 | 0.00 | 0.00 | 80 | 1012.6 |
| 20260504020002 | 50 | 187 | 4.3 | 13.0 | 0.00 | 0.00 | 0.00 | 81 | 1012.9 |
| 20260504015501 | 50 | 201 | 7.8 | 14.8 | 0.00 | 0.00 | 0.00 | 80 | 1012.6 |
| 20260504015002 | 49 | 201 | 3.5 | 9.6 | 0.00 | 0.00 | 0.00 | 82 | 1012.7 |
| 20260504014502 | 49 | 155 | 9.6 | 13.0 | 0.00 | 0.00 | 0.00 | 82 | 1012.8 |
| 20260504014001 | 50 | 178 | 7.8 | 12.2 | 0.00 | 0.00 | 0.00 | 81 | 1012.7 |
| 20260504013502 | 49 | 167 | 7.8 | 13.0 | 0.00 | 0.00 | 0.00 | 80 | 1012.8 |
| 20260504013002 | 49 | 160 | 5.2 | 10.4 | 0.00 | 0.00 | 0.00 | 81 | 1012.8 |
| 20260504012501 | 49 | 169 | 6.1 | 12.2 | 0.00 | 0.00 | 0.00 | 83 | 1013.0 |
| 20260504012002 | 49 | 155 | 7.8 | 15.6 | 0.00 | 0.00 | 0.00 | 82 | 1012.9 |
| 20260504011501 | 49 | 151 | 3.5 | 17.4 | 0.00 | 0.00 | 0.00 | 82 | 1012.9 |
| 20260504011002 | 49 | 152 | 11.3 | 15.6 | 0.00 | 0.00 | 0.00 | 82 | 1013.0 |
| 20260504010501 | 49 | 161 | 4.3 | 15.6 | 0.00 | 0.00 | 0.00 | 81 | 1012.9 |
| 20260504010002 | 49 | 165 | 3.5 | 12.2 | 0.00 | 0.00 | 0.00 | 81 | 1013.0 |
| 20260504005501 | 49 | 145 | 7.0 | 13.9 | 0.00 | 0.00 | 0.00 | 81 | 1013.0 |
| 20260504005002 | 49 | 156 | 5.2 | 13.0 | 0.00 | 0.00 | 0.00 | 80 | 1013.1 |
| 20260504004501 | 49 | 151 | 7.8 | 13.0 | 0.00 | 0.00 | 0.00 | 81 | 1013.2 |
| 20260504004002 | 49 | 164 | 4.3 | 8.7 | 0.00 | 0.00 | 0.00 | 80 | 1013.1 |
| 20260504003501 | 49 | 150 | 7.8 | 14.8 | 0.00 | 0.00 | 0.00 | 80 | 1013.1 |
| 20260504003001 | 50 | 164 | 7.8 | 13.0 | 0.00 | 0.00 | 0.00 | 80 | 1013.2 |
| 20260504002501 | 50 | 156 | 3.5 | 8.7 | 0.00 | 0.00 | 0.00 | 80 | 1013.3 |
| 20260504002002 | 50 | 153 | 7.0 | 8.7 | 0.00 | 0.00 | 0.00 | 80 | 1013.4 |
| 20260504001502 | 50 | 165 | 3.5 | 9.6 | 0.00 | 0.00 | 0.00 | 79 | 1013.2 |
| 20260504001001 | 50 | 162 | 5.2 | 11.3 | 0.00 | 0.00 | 0.00 | 79 | 1013.4 |
| 20260504000502 | 50 | 168 | 4.3 | 11.3 | 0.00 | 0.00 | 0.00 | 78 | 1013.4 |
| 20260504000003 | 50 | 167 | 4.3 | 13.0 | 0.00 | 0.00 | 0.00 | 79 | 1013.4 |
| 20260503235502 | 50 | 153 | 8.7 | 13.0 | 0.00 | 0.00 | 0.00 | 79 | 1013.2 |
| 20260503235001 | 50 | 153 | 3.5 | 9.6 | 0.00 | 0.00 | 0.00 | 79 | 1013.2 |
| 20260503234502 | 50 | 154 | 5.2 | 10.4 | 0.00 | 0.00 | 0.00 | 79 | 1013.3 |
| 20260503234001 | 50 | 156 | 5.2 | 13.0 | 0.00 | 0.00 | 0.00 | 77 | 1013.2 |
| 20260503233502 | 50 | 187 | 4.3 | 12.2 | 0.00 | 0.00 | 0.00 | 78 | 1013.4 |
| 20260503233001 | 50 | 150 | 7.8 | 13.9 | 0.00 | 0.00 | 0.00 | 77 | 1013.4 |
| 20260503232502 | 50 | 175 | 9.6 | 12.2 | 0.00 | 0.00 | 0.00 | 77 | 1013.5 |
| 20260503232001 | 50 | 186 | 7.0 | 11.3 | 0.00 | 0.00 | 0.00 | 77 | 1013.3 |
| 20260503231502 | 50 | 191 | 4.3 | 13.9 | 0.00 | 0.00 | 0.00 | 77 | 1013.5 |
| 20260503231002 | 50 | 200 | 6.1 | 11.3 | 0.00 | 0.00 | 0.00 | 77 | 1013.7 |
| 20260503230502 | 50 | 186 | 6.1 | 12.2 | 0.00 | 0.00 | 0.00 | 76 | 1013.6 |
| 20260503230001 | 50 | 196 | 3.5 | 9.6 | 0.00 | 0.00 | 0.00 | 77 | 1013.8 |
| 20260503225502 | 50 | 179 | 4.3 | 10.4 | 0.00 | 0.00 | 0.00 | 77 | 1013.8 |
| 20260503225001 | 50 | 175 | 3.5 | 10.4 | 0.00 | 0.00 | 0.00 | 78 | 1014.0 |
| 20260503224501 | 50 | 196 | 6.1 | 12.2 | 0.00 | 0.00 | 0.00 | 76 | 1013.8 |
| 20260503224002 | 50 | 179 | 4.3 | 13.9 | 0.00 | 0.00 | 0.00 | 76 | 1014.0 |
| 20260503223501 | 50 | 198 | 9.6 | 13.9 | 0.00 | 0.00 | 0.00 | 78 | 1014.2 |
| 20260503223001 | 50 | 203 | 3.5 | 12.2 | 0.00 | 0.00 | 0.00 | 77 | 1014.1 |
| 20260503222502 | 50 | 204 | 7.8 | 13.9 | 0.00 | 0.00 | 0.00 | 76 | 1014.4 |
| 20260503222001 | 50 | 178 | 5.2 | 14.8 | 0.00 | 0.00 | 0.00 | 78 | 1014.4 |
| 20260503221502 | 51 | 212 | 10.4 | 16.5 | 0.00 | 0.00 | 0.00 | 76 | 1014.5 |
| 20260503221002 | 51 | 220 | 15.6 | 22.6 | 0.00 | 0.00 | 0.00 | 76 | 1014.6 |
| 20260503220502 | 51 | 222 | 13.0 | 21.7 | 0.00 | 0.00 | 0.00 | 76 | 1014.7 |
| 20260503220002 | 51 | 220 | 17.4 | 24.3 | 0.00 | 0.00 | 0.00 | 75 | 1014.5 |
| 20260503215502 | 51 | 213 | 13.9 | 22.6 | 0.00 | 0.00 | 0.00 | 77 | 1014.7 |
| 20260503215002 | 52 | 216 | 15.6 | 26.1 | 0.00 | 0.00 | 0.00 | 75 | 1014.8 |
| 20260503214501 | 52 | 240 | 19.1 | 27.8 | 0.00 | 0.00 | 0.00 | 73 | 1014.9 |
| 20260503214002 | 52 | 249 | 25.2 | 25.2 | 0.00 | 0.00 | 0.00 | 75 | 1014.8 |
| 20260503213502 | 53 | 218 | 25.2 | 29.5 | 0.00 | 0.00 | 0.00 | 73 | 1015.2 |
| 20260503213001 | 52 | 245 | 27.8 | 33.0 | 0.00 | 0.00 | 0.00 | 72 | 1015.1 |
| 20260503212502 | 53 | 240 | 20.9 | 37.4 | 0.00 | 0.00 | 0.00 | 71 | 1015.0 |
| 20260503212001 | 53 | 231 | 22.6 | 36.5 | 0.00 | 0.00 | 0.00 | 71 | 1015.1 |
| 20260503211502 | 53 | 252 | 20.9 | 34.8 | 0.00 | 0.00 | 0.00 | 71 | 1015.1 |
| 20260503211002 | 54 | 257 | 32.2 | 37.4 | 0.00 | 0.00 | 0.00 | 69 | 1015.0 |
| 20260503210502 | 54 | 247 | 15.6 | 35.6 | 0.00 | 0.00 | 0.00 | 69 | 1014.9 |
| 20260503210002 | 55 | 241 | 24.3 | 39.1 | 0.00 | 0.00 | 0.00 | 67 | 1014.8 |
| 20260503205502 | 56 | 255 | 20.0 | 37.4 | 0.00 | 0.00 | 0.00 | 64 | 1014.7 |
| 20260503205001 | 56 | 256 | 17.4 | 39.1 | 0.00 | 0.00 | 0.00 | 63 | 1014.7 |
| 20260503204502 | 59 | 247 | 18.2 | 28.7 | 0.00 | 0.00 | 0.00 | 50 | 1014.6 |
| 20260503204002 | 59 | 239 | 20.0 | 27.8 | 0.00 | 0.00 | 0.00 | 50 | 1014.7 |
| 20260503203502 | 59 | 241 | 14.8 | 28.7 | 0.00 | 0.00 | 0.00 | 50 | 1014.8 |
| 20260503203002 | 60 | 240 | 18.2 | 26.1 | 0.00 | 0.00 | 0.00 | 47 | 1014.8 |
| 20260503202501 | 60 | 236 | 11.3 | 28.7 | 0.00 | 0.00 | 0.00 | 48 | 1014.9 |
| 20260503202002 | 60 | 233 | 19.1 | 27.8 | 0.00 | 0.00 | 0.00 | 47 | 1015.0 |
| 20260503201502 | 60 | 245 | 16.5 | 20.9 | 0.00 | 0.00 | 0.00 | 46 | 1014.9 |
| 20260503201002 | 60 | 236 | 24.3 | 26.1 | 0.00 | 0.00 | 0.00 | 45 | 1015.1 |
| 20260503200502 | 60 | 242 | 20.0 | 22.6 | 0.00 | 0.00 | 0.00 | 47 | 1015.2 |
| 20260503200002 | 61 | 225 | 16.5 | 22.6 | 0.00 | 0.00 | 0.00 | 46 | 1015.1 |
| 20260503195502 | 61 | 221 | 20.0 | 23.5 | 0.00 | 0.00 | 0.00 | 43 | 1015.1 |
| 20260503195001 | 60 | 228 | 13.0 | 26.1 | 0.00 | 0.00 | 0.00 | 45 | 1015.1 |
| 20260503194502 | 61 | 235 | 19.1 | 28.7 | 0.00 | 0.00 | 0.00 | 44 | 1015.2 |
| 20260503194001 | 60 | 249 | 23.5 | 25.2 | 0.00 | 0.00 | 0.00 | 45 | 1015.3 |
| 20260503193502 | 61 | 222 | 21.7 | 25.2 | 0.00 | 0.00 | 0.00 | 43 | 1015.4 |
| 20260503193002 | 61 | 231 | 26.9 | 28.7 | 0.00 | 0.00 | 0.00 | 43 | 1015.3 |
| 20260503192501 | 62 | 215 | 20.0 | 24.3 | 0.00 | 0.00 | 0.00 | 42 | 1015.4 |
| 20260503192002 | 62 | 229 | 19.1 | 23.5 | 0.00 | 0.00 | 0.00 | 43 | 1015.3 |
| 20260503191502 | 61 | 236 | 18.2 | 30.4 | 0.00 | 0.00 | 0.00 | 42 | 1015.3 |
| 20260503191002 | 62 | 216 | 20.9 | 23.5 | 0.00 | 0.00 | 0.00 | 43 | 1015.5 |
| 20260503190501 | 62 | 216 | 20.0 | 29.5 | 0.00 | 0.00 | 0.00 | 41 | 1015.4 |
| 20260503190002 | 61 | 233 | 14.8 | 27.8 | 0.00 | 0.00 | 0.00 | 43 | 1015.6 |
| 20260503185502 | 61 | 246 | 13.9 | 25.2 | 0.00 | 0.00 | 0.00 | 43 | 1015.6 |
| 20260503185001 | 62 | 246 | 26.1 | 30.4 | 0.00 | 0.00 | 0.00 | 41 | 1015.9 |
| 20260503184502 | 62 | 225 | 14.8 | 27.8 | 0.00 | 0.00 | 0.00 | 45 | 1015.8 |